Regional Weather Roundup
Issued by NWS

Home | Current Version | Previous Version | Text Only | Print | Product List | Glossary On
Versions: 1 2 3 4 5 6 7 8 9 10 11 12 13 14 15 16 17 18 19 20 21 22 23 24 25 26 27 28 29 30 31 32 33 34 35 36 37 38 39 40 41 42 43 44 45 46 47 48 49 50
000
ASHW40 PHFO 180443
RWRHI

WEATHER ROUNDUP FOR HAWAII
NATIONAL WEATHER SERVICE HONOLULU HI
600 PM HST THU APR 17 2014

THIS IS AN AUTOMATED REPORT THAT HAS NOT BEEN QUALITY CONTROLLED.

NOTE..."FAIR" INDICATES FEW OR NO CLOUDS BELOW 12,000 FEET WITH NO
SIGNIFICANT WEATHER AND/OR OBSTRUCTIONS TO VISIBILITY.

* - THESE SITES REPORT LIMITED FIELDS

HIZ001>004-180500-
KAUAI-NIIHAU-

CITY           SKY/WX    TMP DP  RH WIND       PRES   REMARKS
LIHUE APT      CLOUDY    75  68  78 NE16      30.11R
PORT ALLEN*      N/A     79 N/A N/A E17G23      N/A
POIPU*           N/A     77 N/A N/A NE9G18      N/A
PRINCEVILLE*   NOT AVBL
KOKOLE POINT*  NOT AVBL
MOLOAA DAIRY*  NOT AVBL
WAIMEA HTS*      N/A    N/A N/A N/A SW5G13      N/A
PUU OPAE*        N/A     72  63  73 CALM        N/A
PUU LUA*       NOT AVBL
MAKAHA RIDGE*    N/A     75  63  64 SW3         N/A
$$

HIZ005>011-180500-
OAHU-

CITY           SKY/WX    TMP DP  RH WIND       PRES   REMARKS
HONOLULU       PTSUNNY   80  65  59 N14       30.05R
KALAELOA       MOSUNNY   81  65  58 VRB7      30.06R
KANEOHE MCB    CLOUDY    77  66  69 NE10G17   30.08S
WHEELER FIELD  PTSUNNY   73  64  73 VRB2      30.09R
BELLOWS*       NOT AVBL
KAHUKU*          N/A    N/A N/A N/A NE7G16      N/A
WHEELER*       NOT AVBL
WAIANAE HARBOR NOT AVBL
DILLINGHAM*    NOT AVBL
KAHUKU TRN*      N/A     73  73 100 E12G28      N/A
KAWAILOA*      NOT AVBL
KII*             N/A     77  70  78 NE13G18     N/A
MAKUA RANGE*     N/A     79  68  69 NE13G23     N/A
OAHU FOREST NW   N/A     64  64 100 VRB16G26    N/A
SCHOFIELD BRK*   N/A     75  64  69 MISG        N/A
SCHOFIELD S*     N/A     72 N/A N/A CALM        N/A
WAIANAE VLY*     N/A     73  63  68 NE7G20      N/A
KUAOKALA*        N/A     72  66  83 NE18G33     N/A
HONOULIUULI*   NOT AVBL
MOKUOLOE IS*     N/A    N/A N/A N/A MISG        N/A
PALEHUA*         N/A     81  64  57 CALM        N/A
WAIAWA PHB*    NOT AVBL
$$

HIZ012>013-180500-
MOLOKAI-

CITY           SKY/WX    TMP DP  RH WIND       PRES   REMARKS
MOLOKAI AIRPT  CLOUDY    75  70  84 NE14G21   30.06R
KALAUPAPA      NOT AVBL
MAKAPULAPAI*     N/A     75  68  78 E16G25      N/A
MOLOKAI 1*       N/A     66  61  82 NW8G25      N/A
PUU ALII*        N/A     58  57  96 E2G9        N/A
$$

HIZ016-180500-
KAHOOLAWE-

CITY           SKY/WX    TMP DP  RH WIND       PRES   REMARKS
KAHOOLAWE*       N/A     72 N/A N/A E16G25      N/A
HAKIOAWA*        N/A     74  64  69 MISG      30.19R
HONOKANAIA*      N/A     80  69  67 NE17G29   30.05S
KANELOA*       NOT AVBL
KEALIALALO*      N/A    N/A N/A N/A E13G33    30.38R
LUA MAKIKA*    NOT AVBL
$$

HIZ014>015-180500-
LANAI-

CITY           SKY/WX    TMP DP  RH WIND       PRES   REMARKS
LANAI CITY     CLOUDY    73  66  78 W3        30.11R
LANAI 1*         N/A     72  72 100 NE16G24     N/A
$$

HIZ017>028-180500-
MAUI-

CITY           SKY/WX    TMP DP  RH WIND       PRES   REMARKS
KAHULUI        PTCLDY    77  68  73 NE17G28   30.03R
KAPALUA-W MAUI LGT RAIN  75  68  78 NE14      30.05S
HANA AIRPORT   NOT AVBL
HANA*            N/A     77 N/A N/A E7          N/A
HALEAKALA SUMM   N/A     43  19  39 E22G35      N/A
MAALAEA BAY*   NOT AVBL
HALEAKALA*     NOT AVBL
KAUPO GAP*       N/A     73  57  56 SE5G18      N/A
KULA 1*          N/A     56  53  90 N3G9        N/A
$$

HIZ023>026-180500-
BIG ISLAND OF HAWAII COAST AND LOWER SLOPES-

CITY           SKY/WX    TMP DP  RH WIND       PRES   REMARKS
KAILUA KONA    MOCLDY    81  62  52 S6        30.03R
HILO           PTCLDY    76  70  82 E8        30.08R
HONOKAA*       NOT AVBL
KAWAIHAE MWT*    N/A     81 N/A N/A S6          N/A
KAWAIHAE*        N/A     79 N/A N/A W2          N/A
SOUTH POINT*     N/A     73 N/A N/A NE22G32     N/A
UPOLU AIRPORT*   N/A    N/A N/A N/A NE14G20     N/A
KAMUELA*       CLOUDY    66  63  88 NE12      30.16S
HAKALAU*         N/A     56  51  82 S6G12       N/A
KALOKO-HONOKO*   N/A     81  63  54 NW2       30.02S
PALI 2*          N/A     70  57  64 NE10G16     N/A
KEALAKOMO*       N/A     79  66  65 E12G21      N/A
KAUPULEHU*       N/A     75  57  53 SW3G12      N/A
KAPAPALA*      NOT AVBL
LOWER KAHUKU*  NOT AVBL
PUHE CS*       NOT AVBL
PUHO CS*         N/A     78  66  66 W3          N/A
PTA KEAMUKU*     N/A     64  61  88 N9G16       N/A
WAIKOLOA*        N/A     75  59  57 NW3G16      N/A
$$

HIZ027>028-180500-
BIG ISLAND OF HAWAII INTERIOR AND SUMMMITS-

CITY           SKY/WX    TMP DP  RH WIND       PRES   REMARKS
BRADSHAW FIELD PTCLDY    60  46  57 SE3       30.37R
MK VISITOR CEN NOT AVBL
MAUNA KEA*       N/A     37 -24   6 E26         N/A  WCI  26
MAUNA LOA*     NOT AVBL
MAUNA LOA 1*   NOT AVBL
PTA KIPUKA*      N/A     61  55  82 NW5G14      N/A
PTA RANGE 17*    N/A     59  55  88 W7G18       N/A
PTA WEST*        N/A     61  59  94 SW6G14      N/A
NENE CABIN*    NOT AVBL
AHUMOA*          N/A     53  53  99 S5G12       N/A
PTA PORTABLE*  NOT AVBL
PUU MALI*      NOT AVBL
$$

HIC003-180500-
NORTHWEST ISLANDS-

CITY           SKY/WX    TMP DP  RH WIND       PRES   REMARKS
MIDWAY ISLAND  CLOUDY    68  64  88 NE10      30.18F
MIDWAY NOS*    NOT AVBL
FRENCH FRIGATE NOT AVBL
$$

PHZ110>124-180-180500-
BUOY REPORTS

STATION/POSITION TIME  TEMP    WIND        PRES    WAVE   SWELL
                       AIR SEA DIR/SP/G            HT/PER HT/DIR
                 (UTC) (F)     (DEG/KT/KT) (MB)    (FT/S) (FT/D)
BUOY 51001       NOT AVBL
BUOY 51101       0400   73 74   50/ 14/ 16 1019.7F   7/12   7/320
BUOY 51100       0300   73 74   60/ 16/ 17 1019.5
BUOY 51003       0400   78 78   70/ 14/ 16 1017.2R   8/13   7
BUOY 51004       0400   78 77   60/ 16/ 19 1013.7R   8/ 8   5
BARBERS PT BUOY  NOT AVBL
WAIMEA BAY BUOY  0400      75                N/A     6/13   3/320
KAILUA BAY BUOY  0400      76                N/A     7/ 9   2/360
LANAI BUOY       0400      79                N/A     2/13   2/270
BARBERS PT 2     0400      76                N/A     4/14   3/300
PAUWELA MAUI     NOT AVBL
HILO             0400      78                N/A     7/ 9
KANEOHE BAY BUOY 0400      75                N/A     6/ 9   2/340
HANALEI KAUAI    0400      77                N/A     8/13   3/320
KAHULUI HARBOR   0400   76 77   60/ 19/ 26 1016.7R
HONOLULU HARBOR  0400   77      50/  8/ 15 1017.8R
KILO NALU        NOT AVBL
HILO HARBOR      0400   79 77  100/  3/  6 1018.0R
MOKUOLOE         0400   76 75   50/ 13/ 15 1018.6S
NAWILIWILI       0400      78                N/A
WHOTS BUOY       NOT AVBL
BUOY 51028       NOT AVBL
$$

......................KEY........................................
  SKY/WX - SKY CONDITIONS/PRESENT WEATHER
  TMP    - TEMPERATURE IN FAHRENHEIT
  DWPT   - DEWPOINT IN FAHRENHEIT
  RH     - RELATIVE HUMIDITY IN PERCENT
  WIND   - DIRECTION AND SPEED /MPH FOR ISLANDS...KTS FOR BUOYS/
  PRES   - MEAN SEA LEVEL PRESSURE IN INCHES OF HG
  VSB    - VISIBILITY IN MILES
  HX     - HEAT INDEX
  WCI    - WIND CHILL INDEX
  VRB    - VARIABLE WIND DIRECTION
  N/A    - NOT AVAILABLE



USA.gov is the U.S. government's official web portal to all federal, state and local government web resources and services.